When you browse on this site, cookies collect data to enhance your experience and personalize the content and advertising you see.
Visit our Privacy Policy to learn more. By continuing to use the site, you agree to this use of cookies and data.
  • In Czech Republic
  • List of Countries
  • For 7 days
  • Water Temperature
  • Satellite Maps
  • Weather Map
  • Weather Widgets
  • user-avatar
    Login

    Hourly Weather Waukesha

    Today, 21 February, Thursday

    Time Temperature Precipitation Wind Pressure Humidity
    00:00 -6°C° 0 mm 5 mps 734 mmHg 84%
    01:00 -7°C° 0 mm 5 mps 735 mmHg 85%
    02:00 -8°C° 0 mm 5 mps 736 mmHg 86%
    03:00 -10°C° 0 mm 6 mps 737 mmHg 87%
    04:00 -10°C° 0 mm 5 mps 737 mmHg 87%
    05:00 -11°C° 0 mm 5 mps 738 mmHg 88%
    06:00 -12°C° 0 mm 5 mps 739 mmHg 89%
    07:00 -12°C° 0 mm 5 mps 740 mmHg 88%
    08:00 -11°C° 0 mm 5 mps 740 mmHg 88%
    09:00 -11°C° 0 mm 5 mps 741 mmHg 87%
    10:00 -10°C° 0 mm 5 mps 741 mmHg 87%
    11:00 -8°C° 0 mm 5 mps 742 mmHg 86%
    12:00 -8°C° 0 mm 5 mps 742 mmHg 86%
    13:00 -7°C° 0 mm 5 mps 743 mmHg 86%
    14:00 -7°C° 0 mm 5 mps 743 mmHg 86%
    15:00 -5°C° 0 mm 4 mps 743 mmHg 86%
    16:00 -7°C° 0 mm 4 mps 743 mmHg 88%
    17:00 -7°C° 0 mm 3 mps 744 mmHg 89%
    18:00 -6°C° 0 mm 2 mps 745 mmHg 90%
    19:00 -7°C° 0 mm 2 mps 745 mmHg 91%
    20:00 -8°C° 0 mm 2 mps 745 mmHg 91%
    21:00 -9°C° 0 mm 2 mps 746 mmHg 91%
    22:00 -9°C° 0 mm 2 mps 746 mmHg 92%
    23:00 -10°C° 0 mm 2 mps 747 mmHg 92%

    Tomorrow, 22 February, Friday

    Time Temperature Precipitation Wind Pressure Humidity
    00:00 -10°C° 0 mm 2 mps 747 mmHg 93%
    01:00 -12°C° 0 mm 2 mps 747 mmHg 93%
    02:00 -12°C° 0 mm 2 mps 748 mmHg 92%
    03:00 -10°C° 0 mm 1 mps 748 mmHg 92%
    04:00 -11°C° 0 mm 1 mps 748 mmHg 92%
    05:00 -11°C° 0 mm 1 mps 748 mmHg 92%
    06:00 -11°C° 0 mm 0 mps 748 mmHg 92%
    07:00 -10°C° 0 mm 0 mps 748 mmHg 90%
    08:00 -8°C° 0 mm 0 mps 749 mmHg 88%
    09:00 -6°C° 0 mm 0 mps 749 mmHg 87%
    10:00 -5°C° 0 mm 0 mps 749 mmHg 88%
    11:00 -3°C° 0 mm 1 mps 749 mmHg 89%
    12:00 -1°C° 0 mm 1 mps 749 mmHg 90%
    13:00 -1°C° 0 mm 1 mps 748 mmHg 91%
    14:00 -1°C° 0 mm 1 mps 748 mmHg 92%
    15:00 -2°C° 0 mm 2 mps 748 mmHg 93%
    16:00 -3°C° 0 mm 2 mps 747 mmHg 93%
    17:00 -5°C° 0 mm 2 mps 747 mmHg 93%
    18:00 -6°C° 0 mm 2 mps 747 mmHg 93%
    19:00 -7°C° 0 mm 3 mps 747 mmHg 92%
    20:00 -7°C° 0 mm 3 mps 746 mmHg 91%
    21:00 -7°C° 0 mm 3 mps 746 mmHg 91%
    22:00 -6°C° 0 mm 3 mps 746 mmHg 90%
    23:00 -6°C° 0 mm 3 mps 745 mmHg 90%

    Day after tomorrow, 23 February, Saturday

    Time Temperature Precipitation Wind Pressure Humidity
    00:00 -5°C° 0 mm 3 mps 745 mmHg 90%
    01:00 -5°C° 0 mm 3 mps 744 mmHg 89%
    02:00 -4°C° 0 mm 4 mps 743 mmHg 88%
    03:00 -3°C° 0 mm 4 mps 743 mmHg 87%
    04:00 -3°C° 0 mm 4 mps 742 mmHg 88%
    05:00 -3°C° 0 mm 4 mps 741 mmHg 89%
    06:00 -2°C° 0 mm 3 mps 740 mmHg 90%
    07:00 -3°C° 1.7 mm 4 mps 740 mmHg 93%
    08:00 -2°C° 1.7 mm 4 mps 739 mmHg 96%
    09:00 -2°C° 1.7 mm 4 mps 739 mmHg 98%
    10:00 -2°C° 1.3 mm 4 mps 738 mmHg 99%
    11:00 -2°C° 1.3 mm 4 mps 737 mmHg 99%
    12:00 -2°C° 1.3 mm 4 mps 736 mmHg 99%
    13:00 -2°C° 0.3 mm 4 mps 735 mmHg 99%
    14:00 -1°C° 0.3 mm 4 mps 733 mmHg 99%
    15:00 0°C° 0.3 mm 3 mps 732 mmHg 99%
    16:00 -1°C° 0.2 mm 4 mps 730 mmHg 99%
    17:00 -1°C° 0.2 mm 4 mps 729 mmHg 98%
    18:00 -1°C° 0.2 mm 4 mps 727 mmHg 98%
    19:00 0°C° 3.1 mm 5 mps 725 mmHg 98%
    20:00 -1°C° 3.1 mm 6 mps 723 mmHg 98%
    21:00 0°C° 3.1 mm 7 mps 721 mmHg 98%
    22:00 +1°C° 1 mm 6 mps 720 mmHg 98%
    23:00 +2°C° 1 mm 6 mps 719 mmHg 99%

    24 February, Sunday

    Time Temperature Precipitation Wind Pressure Humidity
    00:00 +2°C° 1 mm 5 mps 717 mmHg 99%
    01:00 +2°C° 0 mm 5 mps 717 mmHg 95%
    02:00 +1°C° 0 mm 5 mps 716 mmHg 91%
    03:00 +1°C° 0 mm 5 mps 716 mmHg 87%
    04:00 -1°C° 0.1 mm 7 mps 716 mmHg 87%
    05:00 -1°C° 0.1 mm 9 mps 717 mmHg 87%
    06:00 -3°C° 0.1 mm 10 mps 718 mmHg 86%
    07:00 -3°C° 0 mm 11 mps 719 mmHg 84%
    08:00 -3°C° 0 mm 11 mps 721 mmHg 81%
    09:00 -3°C° 0 mm 12 mps 723 mmHg 79%
    10:00 -3°C° 0.1 mm 12 mps 725 mmHg 78%
    11:00 -3°C° 0.1 mm 12 mps 726 mmHg 77%
    12:00 -3°C° 0.1 mm 12 mps 728 mmHg 76%
    13:00 -5°C° 0.1 mm 12 mps 729 mmHg 75%
    14:00 -6°C° 0.1 mm 12 mps 730 mmHg 74%
    15:00 -6°C° 0.1 mm 12 mps 731 mmHg 73%
    16:00 -7°C° 0.1 mm 11 mps 732 mmHg 74%
    17:00 -7°C° 0.1 mm 11 mps 733 mmHg 75%
    18:00 -8°C° 0.1 mm 11 mps 734 mmHg 75%
    19:00 -8°C° 0 mm 10 mps 735 mmHg 76%
    20:00 -9°C° 0 mm 10 mps 736 mmHg 76%
    21:00 -9°C° 0 mm 10 mps 737 mmHg 76%
    22:00 -10°C° 0 mm 9 mps 739 mmHg 76%
    23:00 -10°C° 0 mm 9 mps 740 mmHg 76%

    25 February, Monday

    Time Temperature Precipitation Wind Pressure Humidity
    00:00 -11°C° 0 mm 8 mps 741 mmHg 76%
    01:00 -12°C° 0 mm 8 mps 742 mmHg 76%
    02:00 -13°C° 0 mm 8 mps 743 mmHg 77%
    03:00 -14°C° 0 mm 7 mps 744 mmHg 78%
    04:00 -15°C° 0 mm 7 mps 745 mmHg 79%
    05:00 -16°C° 0 mm 6 mps 746 mmHg 80%
    06:00 -17°C° 0 mm 6 mps 747 mmHg 81%
    07:00 -17°C° 0 mm 5 mps 747 mmHg 80%
    08:00 -16°C° 0 mm 4 mps 748 mmHg 79%
    09:00 -16°C° 0 mm 4 mps 749 mmHg 79%
    10:00 -16°C° 0 mm 4 mps 749 mmHg 74%
    11:00 -14°C° 0 mm 3 mps 749 mmHg 70%
    12:00 -13°C° 0 mm 3 mps 749 mmHg 66%
    13:00 -12°C° 0 mm 2 mps 749 mmHg 65%
    14:00 -10°C° 0 mm 2 mps 749 mmHg 64%
    15:00 -10°C° 0 mm 2 mps 749 mmHg 64%
    16:00 -10°C° 0 mm 2 mps 749 mmHg 67%
    17:00 -9°C° 0 mm 1 mps 748 mmHg 71%
    18:00 -9°C° 0 mm 1 mps 748 mmHg 74%
    19:00 -9°C° 0.1 mm 1 mps 749 mmHg 78%
    20:00 -9°C° 0.1 mm 0 mps 749 mmHg 82%
    21:00 -9°C° 0.1 mm 0 mps 749 mmHg 85%
    22:00 -9°C° 0.1 mm 0 mps 748 mmHg 86%
    23:00 -9°C° 0.1 mm 1 mps 748 mmHg 87%

    26 February, Tuesday

    Time Temperature Precipitation Wind Pressure Humidity
    00:00 -8°C° 0.1 mm 1 mps 748 mmHg 88%
    01:00 -9°C° 0.1 mm 2 mps 747 mmHg 88%
    02:00 -9°C° 0.1 mm 2 mps 747 mmHg 87%
    03:00 -9°C° 0.1 mm 2 mps 746 mmHg 87%
    04:00 -9°C° 0.2 mm 3 mps 746 mmHg 88%
    05:00 -9°C° 0.2 mm 3 mps 745 mmHg 90%
    06:00 -9°C° 0.2 mm 4 mps 745 mmHg 91%
    07:00 -8°C° 0.2 mm 4 mps 744 mmHg 89%
    08:00 -8°C° 0.2 mm 4 mps 744 mmHg 87%
    09:00 -7°C° 0.2 mm 4 mps 743 mmHg 84%
    10:00 -5°C° 0 mm 3 mps 742 mmHg 83%
    11:00 -4°C° 0 mm 3 mps 742 mmHg 82%
    12:00 -2°C° 0 mm 2 mps 741 mmHg 81%
    13:00 -2°C° 0.1 mm 2 mps 740 mmHg 84%
    14:00 0°C° 0.1 mm 1 mps 740 mmHg 88%
    15:00 +1°C° 0.1 mm 1 mps 739 mmHg 91%
    16:00 0°C° 0.1 mm 1 mps 740 mmHg 92%
    17:00 -2°C° 0.1 mm 2 mps 740 mmHg 94%
    18:00 -3°C° 0.1 mm 2 mps 740 mmHg 96%
    19:00 -4°C° 0.2 mm 3 mps 740 mmHg 95%
    20:00 -5°C° 0.2 mm 4 mps 740 mmHg 94%
    21:00 -5°C° 0.2 mm 4 mps 741 mmHg 94%
    22:00 -7°C° 0.2 mm 5 mps 741 mmHg 93%
    23:00 -8°C° 0.2 mm 5 mps 741 mmHg 92%
    Show more